Weather History for KAAA - October, 2012

Change the Weather History Date:

Sunday, October 14, 2012

  Actual Average (KSPI) Record (KSPI)
Temperature  
Mean Temperature 62 °F 56 °F  
Max Temperature 72 °F 67 °F 88 °F (1897)
Min Temperature 52 °F 44 °F 27 °F (1979)
Degree Days  
Heating Degree Days 3 10  
Month to date heating degree days 115  
Since 1 July heating degree days 196  
Cooling Degree Days 0 1  
Month to date cooling degree days 16  
Year to date cooling degree days 1115  
Growing Degree Days 12 (Base 50)    
Moisture  
Dew Point 58 °F    
Average Humidity 83    
Maximum Humidity 96    
Minimum Humidity 63    
Precipitation  
Precipitation 0.00 in 0.09 in 1.65 in (1966)
Month to date precipitation 1.37  
Year to date precipitation 29.92  
Snow  
Snow 0.00 in 0.00 in 0.00 in ()
Month to date snowfall 0.0  
Since 1 July snowfall 0.0  
Since 1 September snowfall 0.0  
Snow Depth -    
Sea Level Pressure  
Sea Level Pressure 29.69 in    
Wind  
Wind Speed 12 mph (SW)    
Max Wind Speed 26 mph    
Max Gust Speed 38 mph    
Visibility 9 miles    
Events Rain    
T = Trace of Precipitation, MM = Missing Value Source: NWS Daily Summary

Daily Weather History Graph

Daily Weather History Graph

Search for Another Location

Airport or City:

Trip Planner

Search our weather history database for the weather conditions in past years. The results will help you decide how hot, cold, wet, or windy it might be!

Date:

Astronomy

Oct. 14, 2012 Rise Set
Actual Time 7:07 AM CDT 6:18 PM CDT
Civil Twilight 6:40 AM CDT 6:45 PM CDT
Nautical Twilight 6:08 AM CDT 7:17 PM CDT
Astronomical Twilight 5:37 AM CDT 7:48 PM CDT
Moon 6:06 AM CDT (10/14) 5:38 PM CDT (10/14)
Length of Visible Light 12h 05m
Length of Day
11h 10m
Waning Crescent, 1% of the Moon is Illuminated
Oct 14
Waning Crescent
Oct 15
New
Oct 21
First Quarter
Oct 29
Full
Nov 6
Last Quarter

Hourly Weather History & Observations

Time (CDT) Temp. Dew Point Humidity Pressure Visibility Wind Dir Wind Speed Gust Speed Precip Events Conditions
12:15 AM 65.8 °F 64.6 °F 96% 29.78 in 2.5 mi SSE 6.9 mph - N/A Rain Heavy Rain
12:35 AM 66.2 °F 64.9 °F 96% 29.77 in 5.0 mi SSW 5.8 mph - N/A Rain Light Rain
12:55 AM 66.4 °F 64.8 °F 95% 29.76 in 5.0 mi South 4.6 mph - N/A   Overcast
1:15 AM 66.4 °F 64.4 °F 93% 29.76 in 5.0 mi SSE 9.2 mph - N/A Rain Rain
1:35 AM 66.4 °F 63.7 °F 91% 29.74 in 7.0 mi South 11.5 mph 19.6 mph N/A Rain Light Rain
1:55 AM 66.2 °F 63.5 °F 91% 29.74 in 7.0 mi South 10.4 mph 17.3 mph N/A Rain Light Rain
2:15 AM 66.6 °F 63.0 °F 88% 29.73 in 7.0 mi South 15.0 mph 21.9 mph N/A Rain Rain
2:35 AM 66.4 °F 63.1 °F 89% 29.72 in 7.0 mi South 16.1 mph 24.2 mph N/A Rain Light Rain
2:55 AM 66.4 °F 63.5 °F 90% 29.70 in 7.0 mi South 16.1 mph 25.3 mph N/A Rain Light Rain
3:15 AM 66.2 °F 63.1 °F 90% 29.67 in 7.0 mi South 24.2 mph 34.5 mph N/A Rain Light Rain
3:35 AM 66.4 °F 63.3 °F 90% 29.67 in 10.0 mi South 26.5 mph 38.0 mph N/A Rain Light Rain
3:55 AM 67.1 °F 63.5 °F 88% 29.67 in 10.0 mi South 23.0 mph 34.5 mph N/A Rain Light Rain
4:15 AM 66.4 °F 63.5 °F 90% 29.67 in 10.0 mi South 11.5 mph 25.3 mph N/A   Overcast
4:35 AM 66.2 °F 63.1 °F 90% 29.67 in 10.0 mi SSW 12.7 mph 19.6 mph N/A   Overcast
4:55 AM 65.8 °F 62.8 °F 90% 29.67 in 10.0 mi South 15.0 mph 20.7 mph N/A   Light Drizzle
5:15 AM 65.7 °F 62.8 °F 90% 29.66 in 10.0 mi South 17.3 mph 24.2 mph N/A   Overcast
5:35 AM 65.7 °F 62.6 °F 90% 29.63 in 10.0 mi South 16.1 mph 23.0 mph N/A   Overcast
5:55 AM 64.8 °F 62.1 °F 91% 29.59 in 10.0 mi SSE 11.5 mph - N/A   Mostly Cloudy
6:15 AM 64.8 °F 62.1 °F 91% 29.60 in 10.0 mi South 16.1 mph 21.9 mph N/A   Mostly Cloudy
6:35 AM 64.8 °F 62.1 °F 91% 29.61 in 10.0 mi South 17.3 mph 21.9 mph N/A   Scattered Clouds
6:55 AM 64.8 °F 62.1 °F 91% 29.62 in 10.0 mi South 15.0 mph 26.5 mph N/A   Mostly Cloudy
7:15 AM 64.6 °F 61.7 °F 90% 29.62 in 10.0 mi South 18.4 mph 25.3 mph N/A   Scattered Clouds
7:35 AM 64.8 °F 61.2 °F 88% 29.62 in 10.0 mi South 17.3 mph 25.3 mph N/A   Mostly Cloudy
7:55 AM 65.3 °F 60.8 °F 85% 29.62 in 10.0 mi South 16.1 mph 24.2 mph N/A   Overcast
8:15 AM 65.7 °F 61.2 °F 85% 29.62 in 10.0 mi South 16.1 mph 27.6 mph N/A   Mostly Cloudy
8:35 AM 65.7 °F 61.0 °F 85% 29.62 in 10.0 mi South 18.4 mph 26.5 mph N/A   Overcast
8:55 AM 65.3 °F 61.7 °F 88% 29.62 in 10.0 mi South 19.6 mph 28.8 mph N/A   Overcast
9:15 AM 64.9 °F 62.1 °F 90% 29.61 in 5.0 mi South 24.2 mph 33.4 mph N/A Rain Light Rain
9:35 AM 65.3 °F 62.2 °F 90% 29.62 in 7.0 mi SSW 12.7 mph 28.8 mph N/A   Light Drizzle
9:55 AM 67.1 °F 62.6 °F 85% 29.62 in 10.0 mi South 12.7 mph 25.3 mph N/A   Overcast
10:15 AM 67.6 °F 62.6 °F 84% 29.62 in 10.0 mi SSW 11.5 mph 27.6 mph N/A   Overcast
10:35 AM 68.0 °F 62.2 °F 82% 29.61 in 10.0 mi SSW 11.5 mph 26.5 mph N/A   Overcast
10:55 AM 67.3 °F 62.1 °F 83% 29.61 in 10.0 mi SSW 11.5 mph 18.4 mph N/A Rain Light Rain
11:15 AM 67.6 °F 62.2 °F 83% 29.61 in 10.0 mi SSW 10.4 mph 17.3 mph N/A   Overcast
11:35 AM 68.9 °F 62.1 °F 79% 29.60 in 10.0 mi SSW 11.5 mph 21.9 mph N/A   Overcast
11:55 AM 69.4 °F 61.5 °F 76% 29.60 in 10.0 mi SSW 11.5 mph 26.5 mph N/A   Overcast
12:15 PM 70.7 °F 61.7 °F 73% 29.59 in 10.0 mi SSW 13.8 mph 23.0 mph N/A   Mostly Cloudy
12:35 PM 72.0 °F 59.9 °F 66% 29.58 in 10.0 mi SSW 15.0 mph 28.8 mph N/A   Scattered Clouds
12:55 PM 71.6 °F 59.7 °F 66% 29.57 in 10.0 mi SSW 15.0 mph 26.5 mph N/A   Mostly Cloudy
1:15 PM 71.4 °F 59.0 °F 65% 29.57 in 10.0 mi SW 16.1 mph 26.5 mph N/A   Overcast
1:35 PM 70.9 °F 59.2 °F 66% 29.56 in 10.0 mi SW 12.7 mph 27.6 mph N/A   Mostly Cloudy
1:55 PM 72.5 °F 59.2 °F 63% 29.56 in 10.0 mi SW 13.8 mph 21.9 mph N/A   Scattered Clouds
2:15 PM 64.4 °F 58.3 °F 80% 29.59 in 2.5 mi WSW 16.1 mph 33.4 mph N/A Rain Heavy Rain
2:35 PM 62.8 °F 60.1 °F 91% 29.60 in 4.0 mi WSW 8.1 mph 23.0 mph N/A Rain Light Rain
2:55 PM 64.4 °F 60.8 °F 88% 29.61 in 10.0 mi WSW 13.8 mph 23.0 mph N/A   Mostly Cloudy
3:15 PM 64.4 °F 58.6 °F 82% 29.62 in 10.0 mi West 13.8 mph 27.6 mph N/A   Overcast
3:35 PM 63.5 °F 56.7 °F 78% 29.64 in 10.0 mi West 11.5 mph 20.7 mph N/A   Overcast
3:55 PM 63.7 °F 55.4 °F 74% 29.66 in 10.0 mi West 11.5 mph 29.9 mph N/A   Overcast
4:15 PM 62.8 °F 55.4 °F 77% 29.67 in 10.0 mi West 9.2 mph 25.3 mph N/A   Mostly Cloudy
4:35 PM 60.8 °F 54.3 °F 79% 29.69 in 10.0 mi West 12.7 mph 23.0 mph N/A   Mostly Cloudy
4:55 PM 59.2 °F 53.6 °F 82% 29.70 in 7.0 mi West 10.4 mph 24.2 mph N/A   Overcast
5:15 PM 57.7 °F 51.4 °F 79% 29.72 in 10.0 mi West 12.7 mph 26.5 mph N/A   Overcast
5:35 PM 57.2 °F 51.4 °F 81% 29.74 in 10.0 mi West 13.8 mph 26.5 mph N/A   Overcast
5:55 PM 56.5 °F 51.1 °F 82% 29.75 in 10.0 mi West 13.8 mph 24.2 mph N/A   Overcast
6:15 PM 55.9 °F 50.7 °F 83% 29.77 in 10.0 mi WNW 10.4 mph 23.0 mph N/A   Overcast
6:35 PM 55.8 °F 50.5 °F 83% 29.78 in 10.0 mi West 8.1 mph 17.3 mph N/A   Overcast
6:55 PM 55.6 °F 49.8 °F 81% 29.79 in 10.0 mi West 8.1 mph 21.9 mph N/A   Overcast
7:15 PM 55.4 °F 49.3 °F 80% 29.81 in 10.0 mi WNW 10.4 mph 23.0 mph N/A   Overcast
7:35 PM 55.4 °F 48.7 °F 78% 29.82 in 10.0 mi WNW 9.2 mph 21.9 mph N/A   Overcast
7:55 PM 55.0 °F 48.9 °F 80% 29.83 in 10.0 mi WNW 8.1 mph - N/A   Overcast
8:15 PM 54.9 °F 48.4 °F 79% 29.83 in 10.0 mi WNW 6.9 mph 17.3 mph N/A   Overcast
8:35 PM 54.0 °F 47.3 °F 78% 29.84 in 10.0 mi West 8.1 mph - N/A   Scattered Clouds
8:55 PM 54.1 °F 47.5 °F 78% 29.84 in 10.0 mi WNW 6.9 mph - N/A   Mostly Cloudy
9:15 PM 53.8 °F 47.5 °F 79% 29.85 in 10.0 mi West 6.9 mph - N/A   Scattered Clouds
9:55 PM 53.6 °F 47.8 °F 81% 29.86 in 10.0 mi West 5.8 mph - N/A   Clear
10:15 PM 53.6 °F 47.5 °F 80% 29.86 in 10.0 mi West 4.6 mph - N/A   Clear
10:35 PM 53.6 °F 47.1 °F 79% 29.86 in 10.0 mi West 6.9 mph - N/A   Clear
10:55 PM 53.6 °F 46.8 °F 78% 29.87 in 10.0 mi West 6.9 mph - N/A   Clear
11:15 PM 53.1 °F 46.4 °F 78% 29.88 in 10.0 mi West 5.8 mph - N/A   Clear
11:35 PM 52.9 °F 46.4 °F 79% 29.88 in 10.0 mi Calm Calm - N/A   Mostly Cloudy
11:55 PM 52.2 °F 46.4 °F 81% 29.89 in 10.0 mi NW 3.5 mph - N/A   Overcast